{"data":{"norad_id":53994,"epoch":"2026-05-25T04:37:53.185152Z","epoch_age_seconds":55397,"freshness":"FRESH","line1":"1 53994U 22125AG  26145.19297668 -.00000448  00000+0 -10047-4 0  9991","line2":"2 53994  53.2156 230.5604 0001270  88.1608 271.9530 15.08829657201017","mean_motion":15.08829657,"eccentricity":0.000127,"inclination_deg":53.2156,"raan_deg":230.5604,"arg_perigee_deg":88.1608,"mean_anomaly_deg":271.953,"bstar":-1.0047e-5,"rev_number":20101,"period_min":95.438208900476,"perigee_km":538.89642873347,"apogee_km":540.65357838237,"semimajor_km":6917.9120035579,"source":"CELESTRAK","updated_at":"2026-05-25T13:38:17.622467Z"}}